Regional Weather Roundup
Issued by NWS Sterling, VA

Home | Current Version | Previous Version | Graphics & Text | Print | Product List | Glossary On
Versions: 1 2 3 4 5 6 7 8 9 10 11 12 13 14 15 16 17 18 19 20 21 22 23 24 25 26 27
000
ASUS41 KLWX 221611
RWRLWX

REGIONAL WEATHER ROUNDUP
NATIONAL WEATHER SERVICE BALTIMORE MD/WASHINGTON DC
1200 PM EDT FRI SEP 22 2017

Note: "FAIR" indicates few or no clouds below 12,000 feet
with no significant weather and/or obstructions to visibility.
 TC=TEMPERATURE CELSIUS

 * =Non NWS site. Station does not report precipitation (e.g. rain,
    snow, etc.), thunder, or fog.

DCZ001-MDZ009-015-VAZ040>042-051-053>054-221700-
WASHINGTON METRO

CITY           SKY/WX    TMP DP  RH WIND       PRES   REMARKS
WASHINGTON NAT CLOUDY    80  65  59 E5        30.07F
DULLES         CLOUDY    79  66  64 N6        30.08F
ANDREWS AFB    PTSUNNY   78  62  57 W6        30.06F
FT BELVOIR     CLOUDY    80  63  55 CALM      30.06F
QUANTICO       CLOUDY    80  66  62 E7        30.08F
COLLEGE PARK*  CLOUDY    76  64  65 CALM      30.06F
LEESBURG*      PTSUNNY   79  66  65 N6        30.09F
MANASSAS*      PTSUNNY   79  65  62 N8        30.08F
GAITHERSBURG*  CLOUDY    78  67  68 W3        30.09F

$$

MDZ006>007-011-014-221700-
BALTIMORE METRO

CITY           SKY/WX    TMP DP  RH WIND       PRES   REMARKS
BWI AIRPORT    CLOUDY    79  66  64 NW3       30.05F
MD SCIENCE CTR   N/A     79  65  62 MISG      30.05F
MARTIN STATE   PTSUNNY   79  70  73 NW5       30.06F
ANNAPOLIS      CLOUDY    79  69  71 N5        30.05F
FORT MEADE*    PTSUNNY   77  66  69 CALM      30.08F

$$

MDZ012-015-019>023-221700-
MARYLAND EASTERN SHORE

CITY           SKY/WX    TMP DP  RH WIND       PRES   REMARKS
OCEAN CITY     CLOUDY    75  60  59 N8        30.02F
SALISBURY      CLOUDY    77  61  57 N12       30.03F
EASTON*        PTSUNNY   77  63  61 N5        30.08F

$$

MDZ017>025-221700-
SOUTHERN MARYLAND

CITY           SKY/WX    TMP DP  RH WIND       PRES   REMARKS
PATUXENT RIVER CLOUDY    80  64  58 NW7       30.05F
ST INIGOES     MOSUNNY   79  64  60 N3        30.04F
LEONARDTOWN*   MOSUNNY   75  63  64 W3        30.07F

$$

MDZ003>005-221700-
NORTH CENTRAL MARYLAND

CITY           SKY/WX    TMP DP  RH WIND       PRES   REMARKS
FREDERICK*     SUNNY     79  64  61 VRB3      30.11F
HAGERSTOWN APT MOSUNNY   79  64  60 VRB5      30.10F
WESTMINSTER*   CLOUDY    77  66  69 N6        30.10S

$$

MDZ501>502-221700-
WESTERN MARYLAND

CITY           SKY/WX    TMP DP  RH WIND       PRES   REMARKS
OAKLAND*       SUNNY     72  54  53 N8        30.19F
CUMBERLAND*    SUNNY     79  63  57 CALM      30.14F

$$

VAZ025>031-221700-
SHENANDOAH VALLEY

CITY           SKY/WX    TMP DP  RH WIND       PRES   REMARKS
WINCHESTER*    MOSUNNY   77  63  61 E3        30.10F
FRONT ROYAL*   CLOUDY    77  64  65 CALM      30.10F
LURAY*         PTSUNNY   75  63  64 CALM      30.11F
NEW MARKET*    MOSUNNY   79  59  49 CALM      30.11F
STAUNTON*      MOSUNNY   77  61  58 NW3       30.15F
WAYNESBORO*    MOSUNNY   77  60  56 N3        30.15S

$$

WVZ021-048>050-054>055-221700-
EASTERN WEST VIRGINIA PANHANDLE

CITY           SKY/WX    TMP DP  RH WIND       PRES   REMARKS
MARTINSBURG    MOSUNNY   80  62  54 VRB3      30.08F
PETERSBURG*    MOSUNNY   79  65  60 CALM      30.12F

$$

VAZ036>039-050-221700-
CENTRAL FOOTHILLS

CITY           SKY/WX    TMP DP  RH WIND       PRES   REMARKS
CHARLOTTESVILL CLOUDY    82  62  50 CALM      30.09F
CULPEPER*      MOSUNNY   83  66  57 N5        30.09F
ORANGE*        CLOUDY    79  64  61 CALM      30.09F
GORDONSVILLE*  CLOUDY    79  65  61 E5        30.08F
WARRENTON*     MOSUNNY   81  61  50 NE5       30.08F

$$

VAZ055>057-221700-
NORTH AND CENTRAL PIEDMONT

CITY           SKY/WX    TMP DP  RH WIND       PRES   REMARKS
FREDERICKSBRG* CLOUDY    79  64  60 CALM      30.07S
STAFFORD*      CLOUDY    80  64  57 NW5       30.11F

$$

NCZ024-NYZ072-PAZ021-071-VAZ022-071-221700-
OTHER REGIONAL OBSERVATIONS

CITY           SKY/WX    TMP DP  RH WIND       PRES   REMARKS
NEW YORK CITY  SUNNY     78  53  41 VRB6      30.03F
PHILADELPHIA   CLOUDY    75  58  55 NW7       30.03F
PITTSBURGH     PTSUNNY   76  62  62 VRB3      30.15F
ROANOKE        MOSUNNY   80  66  62 CALM      30.15S
RICHMOND       PTSUNNY   82  67  60 N6        30.07S
RALEIGH        MOSUNNY   84  65  52 NE7       30.09F

$$

ANZ530>537-221700-
MARINE OBSERVATIONS

STATION/POSITION TIME  TEMP    WIND        PRES
                       AIR SEA DIR/SP/G
                 (UTC) (F)     (DEG/KT/KT) (MB)
THOMAS PT LIGHT  1600   75 76   CALM  /  1   N/A
BALT KEY BRIDGE  1536   77     320/  5/  5 1017.8F
COVE POINT       1536   74     350/  7/  8 1018.4F
LEWISETTA        1536   75 76  340/  4/  6 1017.6F
SOLOMONS ISLAND  1536   76 76  360/  4/  5 1017.4F
PINEY POINT      1548          310/  6/  7   N/A

$$





USA.gov is the U.S. government's official web portal to all federal, state and local government web resources and services.